    Observer details:
    033 Karl Schwarzschild Observatory, Tautenburg.  Observers C. Hoegner,
        B. Stecklum.  Measurer B. Stecklum.  1.34-m f/3 Schmidt + CCD.
    204 Schiaparelli Observatory.  Observer L. Buzzi.  0.84-m f/3.5 reflector +
        CCD.
    587 Sormano.  Observers A. Butti, L. Iachelini, A. Mahu, L. Molteni.
        Measurer L. Molteni.  0.5-m f/6.8 reflector + CCD.
    658 National Research Council of Canada.  Observer D. D. Balam.  1.82-m
        reflector + CCD.
    G96 Mt. Lemmon Survey.  Observer B. M. Africano.  Measurers B. M. Africano,
        E. J. Christensen, G. A. Farneth, D. C. Fuls, A. R. Gibbs, A. D. Grauer,
        H. Groeller, R. A. Kowalski, S. M. Larson, G. J. Leonard, T. A. Pruyne,
        D. Rankin, R. L. Seaman, F. C. Shelly.  1.5-m reflector + 10K CCD.
    H01 Magdalena Ridge Observatory, Socorro.  Observers W. H. Ryan, E. V. Ryan.
        Measurer W. H. Ryan.  2.4-m f/8.9 Ritchey-Chretien + CCD.
    I52 Steward Observatory, Mt. Lemmon Station.  Observers D. C. Fuls,
        H. Groeller, B. M. Africano, G. J. Leonard.  Measurers B. M. Africano,
        E. J. Christensen, G. A. Farneth, D. C. Fuls, A. R. Gibbs, A. D. Grauer,
        H. Groeller, R. A. Kowalski, S. M. Larson, G. J. Leonard, T. A. Pruyne,
        D. Rankin, R. L. Seaman, F. C. Shelly.  1.0-m reflector + CCD.
    I93 St Pardon de Conques.  Observer F. Losse.  0.40-m f/3.7 reflector + CCD.
    J95 Great Shefford.  Observer P. Birtwhistle.  0.41-m f/6.3
        Schmidt-Cassegrain + CCD.
    K41 Vegaquattro Astronomical Observatory, Novi Ligure.  Observer V. Luna.
        0.3-m Schmidt-Cassegrain + CCD.
    K87 Dettelbach Vineyard Observatory.  Observer B. Haeusler.  0.30-m
        Schmidt-Cassegrain + CCD.
    K88 GINOP-KHK, Piszkesteto.  Observer K. Sarneczky.  1.02-m
        Ritchey-Chretien + CCD.
    L01 Visnjan Observatory, Tican.  Observers K. Korlevic, F. Valentine.
        Measurer K. Korlevic.  1.0-m f/2.9 reflector + CCD.
    
    Orbital elements:
    2019 HK4                                                 Earth MOID = 0.1218 AU
    Epoch 2019 Apr. 27.0 TT = JDT 2458600.5                 MPC
    M 285.91399              (2000.0)            P               Q
    n   0.69095382     Peri.  271.00359     +0.66181145     +0.54550700
    a   1.2671753      Node    56.15038     -0.14164207     +0.76456923
    e   0.3118333      Incl.   38.25583     -0.73616786     +0.34330161
    P   1.43           H   21.0           G   0.15           U   8
    Residuals in seconds of arc
    190427 G96  0.6+  0.0     190429 587  0.7+  0.9-    190501 K87  0.1-  0.5+
    190427 G96  0.3+  0.0     190429 I93  0.0   0.3+    190501 K87  0.2-  0.4+
    190427 G96  0.4+  0.0     190429 I93  0.1-  0.8-    190501 K87  0.2-  0.1-
    190427 G96  0.2+  0.3+    190429 K88  0.4-  0.3+    190501 033  0.1-  0.3-
    190427 L01  1.2-  0.8+    190429 I93  0.3+  2.6-    190501 033  0.1-  0.2-
    190427 L01  1.1-  0.8+    190429 K88  0.2+  0.8+    190501 033  0.4+  0.1+
    190427 L01  1.7-  1.9-    190429 033  0.7+  0.0     190501 033  0.6+  0.2-
    190428 H01  0.2+  0.0     190429 033  0.2-  0.1-    190501 204  0.4+  0.1+
    190428 H01  0.1+  0.1-    190429 033  0.5-  0.3-    190501 204  0.1-  0.2-
    190428 H01  0.1+  0.0     190429 033  0.1+  0.1-    190501 204  0.1+  0.3+
    190428 H01  0.0   0.1-    190430 033  0.4-  0.2-    190501 I52  0.5-  0.0
    190428 I52  0.3+  0.0     190430 033  0.1+  0.1-    190501 I52  1.5-  0.1+
    190428 I52  0.1+  0.0     190430 033  0.2+  0.0     190501 I52  1.0-  0.5+
    190428 I52  0.1+  0.2-    190430 J95  0.4+  0.2-    190501 I52  0.6-  0.7+
    190428 I52  0.3+  0.0     190430 J95  0.4-  0.4-    190501 658  0.0   0.5+
    190429 H01  0.0   0.0     190430 J95  0.1+  0.3+    190501 658  0.2-  0.4+
    190429 H01  0.1+  0.0     190430 658  0.6-  0.8+    190501 658  0.0   0.5+
    190429 H01  0.1-  0.0     190430 658  0.6-  0.9+    190501 658  0.0   0.4+
    190429 H01  0.1+  0.1-    190430 658  0.6-  0.7+    190501 658  0.1+  0.4+
    190429 I52  1.2+  0.1+    190430 658  0.7-  0.6+    190501 K88  0.2-  0.1-
    190429 I52  0.3-  0.3+    190430 658  0.7-  0.6+    190501 K88  0.2-  0.1+
    190429 I52  0.2-  0.4-    190430 658  0.5-  0.4+    190501 K88  0.3+  0.1-
    190429 I52  0.1-  0.0     190430 658  0.4-  0.1+    190501 J95  0.1+  0.4+
    190429 658  0.0   0.5+    190430 K41  0.0   0.1+    190501 J95  0.3+  0.4-
    190429 658  0.0   0.5+    190430 K41  0.1-  0.4-    190501 J95  0.1-  0.0
    190429 658  0.1+  0.4+    190430 K41  0.7+  0.2-    190502 K87  0.7-  0.5-
    190429 658  0.1+  0.4+    190430 033  0.5+  0.0     190502 K87  0.5-  0.4-
    190429 658  0.3+  0.4+    190430 033  0.1-  0.1-    190502 K87  0.5-  0.3-
    190429 658  0.3+  0.4+    190430 033  0.0   0.2-    190502 I52  0.1+  0.7-
    190429 658  0.4+  0.3+    190430 033  0.3-  0.4-    190502 I52  0.4+  0.0
    190429 587  1.2+  1.0-    190430 033  0.0   0.1-    190502 I52  1.1+  0.2+
    190429 587  1.0+  0.9-    190430 033  0.6+  0.0     190502 I52  0.0   0.2-
    
    Ephemeris:
    2019 HK4                 a,e,i = 1.27, 0.31, 38                  q = 0.8720
    Date    TT    R. A. (2000) Decl.     Delta      r     Elong.  Phase     V
    2019 04 03    16 54 10.6 +24 27 41   0.6472  1.3873   113.0    41.5    22.4
    ...
    2019 04 18    16 45 12.6 +24 28 23   0.4714  1.3222   123.2    39.5    21.5
    ...
    2019 04 26    16 29 44.3 +23 25 51   0.3811  1.2853   130.2    36.7    20.9
    ...
    2019 05 02    16 10 00.7 +21 32 11   0.3172  1.2568   136.5    33.5    20.4
    2019 05 03    16 05 49.7 +21 04 25   0.3070  1.2520   137.6    32.8    20.3
    2019 05 04    16 01 20.8 +20 33 25   0.2970  1.2471   138.8    32.2    20.2
    ...
    2019 05 10    15 27 16.3 +15 59 13   0.2417  1.2179   146.2    27.5    19.6
    ...
    2019 05 18    14 18 53.5 +04 08 26   0.1889  1.1782   149.6    25.7    18.9
    ...
    2019 06 02    11 30 13.0 -26 43 53   0.2028  1.1031   111.0    59.1    19.9
    
    A. U. Tomatic                (C) Copyright 2019 MPC           M.P.E.C. 2019-J09
    

    Read MPEC 2019-J08 Read MPEC 2019-J10


    MPEC number:

    Enter an MPEC number in one of the following forms:

    • 1997-B01 (the full form)
    • J97B01 (the packed version of the full form)
    • B01 (the abbreviated form)